{"data":{"norad_id":69844,"epoch":"2026-09-20T05:02:41.997120Z","epoch_age_seconds":42791,"freshness":"FRESH","line1":"1 69844U 26154AB  26263.21020830  .00022024  00000+0  66101-3 0  9990","line2":"2 69844  53.1572 333.0498 0001781  90.5782 269.5424 15.34402491 13193","mean_motion":15.34402491,"eccentricity":0.0001781,"inclination_deg":53.1572,"raan_deg":333.0498,"arg_perigee_deg":90.5782,"mean_anomaly_deg":269.5424,"bstar":0.00066101,"rev_number":1319,"period_min":93.847605725765,"perigee_km":461.477484112,"apogee_km":463.91418876834,"semimajor_km":6840.8328364402,"source":"CELESTRAK","updated_at":"2026-09-20T09:00:44.297747Z"}}